SCP
1 1 1 1 1 1 1 0 0 0 0 0 0 0 0 0 0 0 0 0 0 0 0 0 0 0 0 0 0 0 0 0 0 0 0 0 0 0 0 0 0 0 0
1 1 1 1 1 1 1 1 0 0 0 0 0 0 0 0 0 0 0 0 0 0 0 0 0 0 0 0 0 0 0 0 0 0 0 0 0 0 0 0 0 0 0
1 1 1 1 1 1 1 1 1 0 0 0 0 0 0 0 0 0 0 0 0 0 0 0 0 0 0 0 0 0 0 0 0 0 0 0 0 0 0 0 0 0 0
1 1 1 1 1 1 1 1 1 1 0 0 0 0 0 0 0 0 0 0 0 0 0 0 0 0 0 0 0 0 0 0 0 0 0 0 0 0 0 0 0 0 0
1 1 1 1 1 1 1 1 1 1 0 0 0 0 0 0 0 0 0 0 0 0 0 0 0 0 0 0 0 0 0 0 0 0 0 0 0 0 0 0 0 0 0
1 1 1 1 1 1 1 1 1 0 0 0 0 0 0 0 0 0 0 0 0 0 0 0 0 0 0 0 0 0 0 0 0 0 0 0 0 0 0 0 0 0 0
1 1 1 1 1 1 1 1 1 0 0 0 0 0 0 0 0 0 0 0 0 0 0 0 0 0 0 0 0 0 0 0 0 0 0 0 0 0 0 0 0 0 0
1 1 1 1 1 1 1 1 1 0 0 0 0 0 0 0 0 0 0 0 0 0 0 0 0 0 0 0 0 0 0 0 0 0 0 0 0 0 0 0 0 0 0
1 1 1 1 1 1 1 1 1 0 0 0 0 0 0 0 0 0 0 0 0 0 0 0 0 0 0 0 0 0 0 0 0 0 0 0 0 0 0 0 0 0 0
1 1 1 1 1 1 1 1 0 0 0 0 0 0 0 0 0 0 0 0 0 0 0 0 0 0 0 0 0 0 0 0 0 0 0 0 0 0 0 0 0 0 0
1 1 1 1 1 0 1 1 0 0 0 0 0 0 0 0 0 0 0 0 0 0 0 0 0 0 0 0 0 0 0 0 0 0 0 0 0 0 0 0 0 0 0
1 1 1 1 1 0 1 1 1 0 0 0 0 0 0 0 0 0 0 0 0 0 0 0 0 0 0 0 0 0 0 0 0 0 0 0 0 0 0 0 0 0 0
1 1 1 1 1 1 1 1 0 0 0 0 0 0 0 0 0 0 0 0 0 0 0 0 0 0 0 0 0 0 0 0 0 0 0 0 0 0 0 0 0 0 0
1 1 1 1 1 1 1 0 0 0 0 0 0 0 0 0 0 0 0 0 0 0 0 0 0 0 0 0 0 0 0 0 0 0 0 0 0 0 0 0 0 0 0
1 1 1 1 1 1 0 0 0 0 0 0 0 0 0 0 0 0 0 0 0 0 0 0 0 0 0 0 0 0 0 0 0 0 0 0 0 0 0 0 0 0 0
1 1 1 1 1 0 0 0 0 0 0 0 0 0 0 0 0 0 0 0 0 0 0 0 0 0 0 0 0 0 0 0 0 0 0 0 0 0 0 0 0 0 0
1 1 1 1 1 0 0 0 0 0 0 0 0 0 0 0 0 0 0 0 0 0 0 0 0 0 0 0 0 0 0 0 0 0 0 0 0 0 0 0 0 0 0
0 0 0 0 0 0 0 0 0 0 0 0 0 0 0 0 0 0 0 0 0 0 0 0 0 0 0 0 0 0 0 0 0 0 0 0 0 0 0 0 0 0 0
0 0 0 0 0 0 0 0 0 0 0 0 0 0 0 0 0 0 0 0 0 0 0 0 0 0 0 0 0 0 0 0 0 0 0 0 0 0 0 0 0 0 0
0 0 0 0 0 0 0 0 0 0 0 0 0 0 0 0 0 0 0 0 0 0 0 0 0 0 0 0 0 0 0 0 0 0 0 0 0 0 0 0 0 0 0
0 0 0 0 0 0 0 0 0 0 0 0 0 0 0 0 0 0 0 0 0 0 0 0 0 0 0 0 0 0 0 0 0 0 0 0 0 0 0 0 0 0 0
0 0 0 0 0 0 0 0 0 0 0 0 0 0 0 0 0 0 0 0 0 0 0 0 0 0 0 0 0 0 0 0 0 0 0 0 0 0 0 0 0 0 0
0 0 0 0 0 0 0 0 0 0 0 0 0 0 0 0 0 0 0 0 0 0 0 0 0 0 0 0 0 0 0 0 0 0 0 0 0 0 0 0 0 0 0
0 0 0 0 0 0 0 0 0 0 0 0 0 0 0 0 0 0 0 0 0 0 0 0 0 0 0 0 0 0 0 0 0 0 0 0 0 0 0 0 0 0 0
0 0 0 0 0 0 0 0 0 0 0 0 0 0 0 0 0 0 0 0 0 0 0 0 0 0 0 0 0 0 0 0 0 0 0 0 0 0 0 0 0 0 0
0 0 0 0 0 0 0 0 0 0 0 0 0 0 0 0 0 0 0 0 0 0 0 0 0 0 0 0 0 0 0 0 0 0 0 0 0 0 0 0 0 0 0
Wind_Speed
8 8 7 7 7 7 6 6 6 5 6 6 6 6 7 7 6 5 5 4 5 5 5 5 6 5 4 4 4 4 4 4 4 3 2 2 3 4 2 3 4 4 5
8 8 8 7 7 7 7 6 6 6 6 6 6 6 6 6 6 6 6 5 5 5 5 5 6 5 6 5 4 5 4 4 5 5 3 3 4 4 3 4 4 3 3
7 8 8 8 8 7 7 6 6 6 6 6 6 6 6 6 6 6 6 5 5 5 5 6 6 6 6 5 6 5 5 5 5 5 5 2 3 3 3 4 4 3 4
7 7 8 8 8 7 7 6 6 6 6 6 6 6 6 6 6 6 6 6 5 5 5 6 6 6 6 6 6 6 5 5 5 5 4 3 3 3 4 4 3 3 3
7 7 7 7 7 7 7 7 6 6 7 6 6 6 6 6 6 6 6 6 5 5 5 6 6 5 4 5 5 5 5 5 5 5 4 4 3 3 3 3 3 3 3
6 6 6 7 7 7 7 7 7 7 6 6 7 7 7 6 5 5 6 5 5 5 5 5 6 7 6 7 6 5 5 6 6 5 5 4 4 4 3 3 3 3 3
6 6 6 7 7 7 7 7 7 7 7 7 7 7 7 6 7 7 7 6 6 5 5 5 5 4 6 7 8 9 9 8 7 7 7 5 5 4 4 5 4 4 5
6 5 5 6 7 7 7 7 7 6 7 7 7 7 7 6 8 8 8 8 6 6 6 5 5 5 5 5 6 7 8 8 9 9 7 6 6 4 5 5 5 5 6
6 6 6 6 6 7 7 7 7 7 7 7 7 7 7 6 9 9 8 7 6 7 6 6 6 6 4 4 7 7 6 6 7 7 6 6 5 5 5 5 5 5 5
5 5 5 6 6 6 7 7 6 7 7 7 6 7 7 6 8 10 9 7 6 6 6 6 6 6 5 6 7 7 7 6 6 6 6 8 8 9 10 9 7 6 5
4 5 5 5 6 6 6 6 6 6 6 6 6 6 6 6 8 10 10 7 6 5 5 5 4 7 7 7 7 6 5 5 6 7 7 7 7 7 8 8 7 6 6
4 4 5 5 5 5 6 6 6 6 6 6 5 5 5 5 6 8 10 9 6 5 5 4 3 7 7 8 7 5 4 6 6 6 6 6 6 5 5 5 6 6 6
4 4 4 4 4 5 6 6 6 6 5 5 5 5 4 4 5 7 8 8 8 6 4 1 1 5 6 7 8 7 7 7 6 6 6 6 5 4 4 4 5 5 6
4 4 4 4 4 4 4 5 5 5 5 5 4 4 4 4 4 4 5 6 8 7 6 4 6 7 7 6 5 6 7 6 6 6 5 4 3 3 4 5 5 4 5
4 4 4 4 4 4 4 3 4 3 3 4 4 4 4 4 2 2 3 3 3 3 3 4 5 5 6 6 5 5 6 6 6 6 5 5 4 4 4 4 4 4 5
4 4 3 4 4 4 4 3 1 2 2 1 2 3 2 1 4 4 3 2 3 3 4 5 5 5 5 5 5 5 5 5 5 5 5 5 5 5 5 5 5 5 5
4 4 3 4 4 4 4 4 3 3 3 3 4 3 3 3 4 5 4 3 4 6 6 6 5 5 5 5 5 5 5 5 4 5 6 6 5 5 5 5 5 5 5
5 4 4 3 4 4 4 4 4 4 4 4 5 7 7 6 6 6 6 5 5 6 7 6 5 5 5 5 5 5 5 5 5 6 6 6 5 5 5 5 5 6 5
4 4 3 3 4 4 4 5 5 5 4 4 4 5 7 7 6 6 7 7 6 6 6 5 5 4 4 5 5 5 5 5 5 5 5 5 5 6 6 6 6 5 6
3 3 4 4 4 4 5 5 5 5 5 4 4 4 5 6 6 6 7 7 6 6 5 5 4 4 4 4 4 5 5 5 5 5 5 5 5 5 6 6 6 5 6
3 3 6 5 5 4 4 4 4 4 5 4 4 3 3 6 6 7 7 7 6 6 5 4 4 4 4 4 4 5 5 5 5 5 5 5 5 5 5 5 5 6 6
3 3 4 4 4 4 4 4 4 4 5 5 4 4 6 7 6 5 6 6 5 5 4 4 4 4 3 4 4 4 5 5 5 4 4 5 5 5 5 5 5 5 5
3 3 3 3 3 4 5 4 4 4 5 5 4 3 4 5 5 4 4 4 4 4 4 4 4 4 3 3 3 4 4 4 4 4 5 5 5 5 5 6 7 6 6
2 3 3 3 4 4 4 4 3 3 3 3 3 3 4 4 4 4 4 3 4 4 4 4 4 4 5 4 4 4 3 3 4 5 6 5 5 5 5 6 6 6 6
2 2 2 3 3 3 3 3 3 3 3 3 3 3 3 3 3 3 3 3 4 4 5 5 4 4 5 5 4 3 1 1 3 5 5 5 6 6 6 7 6 6 6
1 2 2 2 2 2 2 3 3 3 3 3 3 3 3 3 3 3 3 3 3 3 3 3 4 4 4 4 4 2 1 1 2 4 6 5 5 5 6 6 7 7 6
Wind_Direction
192 192 191 191 191 193 195 192 190 192 190 191 195 194 197 200 197 204 215 199 210 216 226 226 233 242 235 226 224 227 233 243 252 257 249 211 224 258 243 258 251 236 200
190 188 189 191 189 192 194 194 190 192 195 194 198 199 201 199 198 204 210 206 213 220 225 228 231 229 231 240 234 233 232 242 249 252 256 236 229 240 244 254 253 244 242
186 189 190 195 195 195 194 194 194 193 197 197 198 200 204 201 201 206 212 216 220 226 228 228 230 230 232 232 235 234 232 230 239 248 250 253 250 237 239 241 241 243 250
185 189 193 197 198 196 193 192 194 196 198 200 203 203 205 205 205 208 214 219 224 228 229 231 233 231 231 231 230 232 237 241 233 242 246 241 240 228 234 239 233 223 246
188 192 196 197 195 193 194 195 196 199 203 203 206 206 207 208 206 210 219 217 218 226 230 233 235 235 244 246 250 235 230 237 238 237 241 239 236 233 237 245 250 247 237
197 197 197 196 195 196 195 194 195 200 206 206 210 211 212 210 169 193 229 224 222 226 229 233 229 217 215 220 240 252 254 247 250 248 245 244 242 244 242 248 255 259 260
202 200 197 199 201 199 198 197 199 202 206 210 213 215 216 202 174 191 215 235 231 230 230 236 243 222 219 220 211 218 228 236 243 257 257 253 249 243 244 247 247 260 269
205 202 199 201 204 199 201 202 203 205 209 213 217 218 220 204 178 191 206 226 232 229 229 233 241 238 230 234 229 223 227 218 219 231 250 254 258 259 247 252 259 254 256
208 205 202 203 206 203 203 204 205 207 211 214 214 216 219 205 182 189 204 223 222 224 227 227 236 238 211 222 234 231 232 232 223 231 248 258 266 256 250 249 245 247 257
217 212 206 204 203 206 206 203 201 206 212 216 214 217 219 214 183 187 204 228 223 223 220 220 221 235 203 207 229 231 231 233 231 216 223 227 233 230 219 230 241 248 259
227 217 206 206 206 207 205 201 200 205 209 216 216 216 216 213 187 188 203 230 231 229 229 224 207 185 199 212 230 237 242 252 244 238 234 232 227 224 221 222 233 246 256
230 218 207 205 210 198 196 199 201 202 202 207 210 216 210 199 194 190 198 221 250 241 245 245 189 171 199 214 225 229 226 240 243 243 242 239 235 232 232 232 234 243 254
218 210 203 196 203 198 193 193 194 199 210 207 205 208 206 193 173 177 194 214 229 241 251 280 197 192 202 213 223 216 218 232 239 243 247 248 244 243 244 236 236 239 248
214 208 196 189 189 189 193 196 200 199 206 210 211 211 203 200 195 180 191 199 207 223 233 201 194 204 217 225 209 212 228 240 247 249 253 255 250 239 239 240 240 235 244
218 213 203 195 186 189 194 204 209 209 220 222 218 216 212 214 179 155 225 225 228 226 232 219 215 204 209 214 217 219 225 227 234 244 245 244 241 241 243 246 248 245 248
222 213 212 206 192 195 189 188 151 210 140 204 280 272 248 164 139 153 184 214 221 204 226 227 225 225 224 227 228 223 224 233 239 245 246 245 242 242 244 245 243 243 250
234 222 222 215 204 204 200 198 195 188 198 211 210 221 228 204 175 179 185 195 201 193 221 231 232 231 230 231 235 236 235 233 238 245 247 247 244 243 246 248 247 251 254
241 219 217 221 217 212 211 209 207 207 199 211 205 199 197 199 201 192 177 185 203 211 231 237 238 239 242 241 241 245 242 236 233 242 245 245 246 248 248 249 248 252 254
246 230 214 218 221 218 216 214 212 214 218 217 213 179 182 182 188 190 189 220 228 227 234 240 245 245 245 249 250 248 250 246 246 249 246 246 246 247 249 251 250 242 250
242 218 218 223 223 224 223 222 215 212 215 217 222 214 172 187 200 190 206 227 236 237 239 241 243 247 249 253 251 246 243 242 241 247 251 250 252 252 249 250 256 252 247
245 209 204 216 221 223 226 226 223 224 223 219 224 206 191 223 222 213 210 219 230 237 237 240 240 241 243 246 248 246 249 249 243 244 245 244 249 254 258 257 253 256 258
249 229 219 220 218 218 221 224 224 229 233 230 224 190 189 232 237 228 222 221 226 233 236 238 240 241 248 252 252 250 247 248 252 255 259 255 246 249 254 259 261 260 256
247 233 225 225 226 209 218 225 227 229 232 231 231 219 209 233 242 236 228 228 228 231 234 235 243 247 246 244 252 256 255 259 261 261 259 258 259 255 252 254 255 257 256
245 230 226 226 225 220 216 222 230 236 242 239 239 236 230 236 246 243 238 235 234 229 228 230 242 252 252 249 243 243 253 267 269 260 256 259 259 257 255 253 253 252 252
254 236 233 241 235 225 221 220 226 230 235 237 241 243 232 229 240 245 244 242 242 237 233 230 230 234 241 253 262 272 340 316 293 288 260 253 254 256 258 257 253 254 252
279 264 251 247 242 239 232 230 231 233 233 233 235 237 235 230 230 236 240 241 246 248 246 242 242 242 244 247 258 267 138 210 280 296 282 264 259 258 258 254 253 251 249